Weather History for Chesapeake, VA

Change the Weather History Date:

Thursday, September 12, 2013

  Actual Average (KORF) Record (KORF)
Temperature  
Mean Temperature 79 °F 74 °F  
Max Temperature 89 °F 80 °F 98 °F (1983)
Min Temperature 69 °F 67 °F 53 °F (1993)
Degree Days  
Heating Degree Days 0 0  
Month to date heating degree days 0  
Since 1 July heating degree days 0  
Cooling Degree Days 14 9  
Month to date cooling degree days 119  
Year to date cooling degree days 1454  
Growing Degree Days 29 (Base 50)    
Moisture  
Dew Point 70 °F    
Average Humidity 76    
Maximum Humidity 100    
Minimum Humidity 46    
Precipitation  
Precipitation 0.00 in 0.16 in 3.59 in (1960)
Month to date precipitation 2.02  
Year to date precipitation 33.96  
Snow  
Snow 0.00 in 0.00 in 0.00 in (2002)
Month to date snowfall 0.0  
Since 1 July snowfall 0.0  
Snow Depth -    
Sea Level Pressure  
Sea Level Pressure 29.93 in    
Wind  
Wind Speed 4 mph (SSW)    
Max Wind Speed 14 mph    
Max Gust Speed 18 mph    
Visibility 8 miles    
Events      
T = Trace of Precipitation, MM = Missing Value Source: NWS Daily Summary

Daily Weather History Graph

Daily Weather History Graph

Search for Another Location

Airport:

Trip Planner

Search our weather history database for the weather conditions in past years. The results will help you decide how hot, cold, wet, or windy it might be!

Date:

Astronomy

Sep. 12, 2013 Rise Set
Actual Time 6:45 AM EDT 7:16 PM EDT
Civil Twilight 6:19 AM EDT 7:42 PM EDT
Nautical Twilight 5:48 AM EDT 8:13 PM EDT
Astronomical Twilight 5:17 AM EDT 8:44 PM EDT
Moon 2:00 PM EDT (9/12) No Moon Set
Length of Visible Light 13h 23m
Length of Day
12h 31m
Waxing Crescent, 50% of the Moon is Illuminated
Sep 12
Waxing Crescent
Sep 12
First Quarter
Sep 19
Full
Sep 26
Last Quarter
Oct 4
New

Hourly Weather History & Observations

Time (EDT) Temp. Heat Index Dew Point Humidity Pressure Visibility Wind Dir Wind Speed Gust Speed Precip Events Conditions
12:15 AM 73.4 °F - 69.8 °F 88% 30.09 in 7.0 mi South 4.6 mph - N/A   Clear
12:35 AM 71.6 °F - 69.8 °F 94% 30.08 in 5.0 mi Calm Calm - N/A   Clear
12:55 AM 71.6 °F - 69.8 °F 94% 30.08 in 7.0 mi South 3.5 mph - N/A   Clear
1:15 AM 71.6 °F - 69.8 °F 94% 30.07 in 7.0 mi Calm Calm - N/A   Clear
1:35 AM 71.6 °F - 69.8 °F 94% 30.07 in 7.0 mi Calm Calm - N/A   Clear
1:55 AM 71.6 °F - 69.8 °F 94% 30.06 in 7.0 mi Calm Calm - N/A   Clear
2:15 AM 71.6 °F - 69.8 °F 94% 30.05 in 7.0 mi Calm Calm - N/A   Clear
2:35 AM 69.8 °F - 69.8 °F 100% 30.04 in 5.0 mi Calm Calm - N/A   Clear
2:55 AM 69.8 °F - 69.8 °F 100% 30.04 in 7.0 mi Calm Calm - N/A   Clear
3:15 AM 69.8 °F - 68.0 °F 94% 30.04 in 5.0 mi Calm Calm - N/A   Clear
3:35 AM 71.6 °F - 69.8 °F 94% 30.04 in 7.0 mi Calm Calm - N/A   Clear
3:55 AM 71.6 °F - 69.8 °F 94% 30.04 in 7.0 mi Calm Calm - N/A   Clear
4:15 AM 71.6 °F - 69.8 °F 94% 30.03 in 7.0 mi Calm Calm - N/A   Clear
4:35 AM 71.6 °F - 69.8 °F 94% 30.03 in 7.0 mi Calm Calm - N/A   Clear
4:55 AM 71.6 °F - 69.8 °F 94% 30.03 in 7.0 mi Calm Calm - N/A   Clear
5:15 AM 71.6 °F - 69.8 °F 94% 30.03 in 7.0 mi SSW 3.5 mph - N/A   Clear
5:35 AM 71.6 °F - 69.8 °F 94% 30.03 in 7.0 mi South 3.5 mph - N/A   Clear
5:55 AM 71.6 °F - 69.8 °F 94% 30.03 in 7.0 mi SSW 3.5 mph - N/A   Clear
6:15 AM 69.8 °F - 69.8 °F 100% 30.03 in 5.0 mi South 3.5 mph - N/A   Clear
6:35 AM 69.8 °F - 69.8 °F 100% 30.03 in 5.0 mi South 3.5 mph - N/A   Clear
6:55 AM 69.8 °F - 68.0 °F 94% 30.03 in 5.0 mi South 4.6 mph - N/A   Clear
7:15 AM 69.8 °F - 68.0 °F 94% 30.03 in 4.0 mi South 3.5 mph - N/A   Clear
7:35 AM 71.6 °F - 69.8 °F 94% 30.03 in 5.0 mi South 3.5 mph - N/A   Clear
7:55 AM 71.6 °F - 69.8 °F 94% 30.03 in 7.0 mi Calm Calm - N/A   Clear
8:15 AM 73.4 °F - 69.8 °F 88% 30.01 in 10.0 mi Calm Calm - N/A   Clear
8:35 AM 75.2 °F - 69.8 °F 83% 30.01 in 10.0 mi SSW 4.6 mph - N/A   Clear
8:55 AM 75.2 °F - 69.8 °F 83% 30.01 in 7.0 mi SSW 5.8 mph - N/A   Clear
9:15 AM 77.0 °F - 69.8 °F 78% 30.01 in 10.0 mi SSW 8.1 mph - N/A   Clear
9:35 AM 78.8 °F - 69.8 °F 74% 30.00 in 10.0 mi South 6.9 mph - N/A   Clear
9:55 AM 80.6 °F 83.9 °F 69.8 °F 70% 30.00 in 10.0 mi SSW 8.1 mph - N/A   Clear
10:15 AM 80.6 °F 83.9 °F 69.8 °F 70% 29.99 in 10.0 mi SSW 6.9 mph - N/A   Clear
10:35 AM 82.4 °F 86.3 °F 69.8 °F 66% 29.99 in 10.0 mi SW 5.8 mph - N/A   Clear
10:55 AM 82.4 °F 86.3 °F 69.8 °F 66% 29.98 in 10.0 mi SW 5.8 mph - N/A   Clear
11:15 AM 82.4 °F 86.3 °F 69.8 °F 66% 29.98 in 10.0 mi SW 8.1 mph - N/A   Clear
11:35 AM 82.4 °F 86.3 °F 69.8 °F 66% 29.97 in 10.0 mi SSW 6.9 mph - N/A   Clear
11:55 AM 84.2 °F 88.4 °F 69.8 °F 62% 29.97 in 10.0 mi SSW 6.9 mph - N/A   Clear
12:15 PM 84.2 °F 88.4 °F 69.8 °F 62% 29.96 in 7.0 mi South 5.8 mph - N/A   Clear
12:35 PM 86.0 °F 90.4 °F 69.8 °F 58% 29.95 in 7.0 mi SW 8.1 mph - N/A   Clear
12:55 PM 87.8 °F 92.6 °F 69.8 °F 55% 29.95 in 7.0 mi SW 4.6 mph - N/A   Clear
1:15 PM 87.8 °F 92.6 °F 69.8 °F 55% 29.94 in 10.0 mi SW 6.9 mph - N/A   Scattered Clouds
1:35 PM 89.6 °F 94.7 °F 69.8 °F 52% 29.93 in 10.0 mi SW 8.1 mph - N/A   Scattered Clouds
1:55 PM 89.6 °F 94.7 °F 69.8 °F 52% 29.91 in 7.0 mi SSW 8.1 mph - N/A   Clear
2:15 PM 89.6 °F 94.7 °F 69.8 °F 52% 29.90 in 7.0 mi South 11.5 mph - N/A   Clear
2:35 PM 89.6 °F 92.2 °F 66.2 °F 46% 29.89 in 7.0 mi South 11.5 mph - N/A   Clear
2:55 PM 89.6 °F 93.4 °F 68.0 °F 49% 29.88 in 7.0 mi South 12.7 mph - N/A   Clear
3:15 PM 89.6 °F 93.4 °F 68.0 °F 49% 29.87 in 7.0 mi SSW 12.7 mph - N/A   Clear
3:35 PM 89.6 °F 94.7 °F 69.8 °F 52% 29.86 in 7.0 mi South 9.2 mph - N/A   Scattered Clouds
3:55 PM 89.6 °F 94.7 °F 69.8 °F 52% 29.85 in 5.0 mi SSW 11.5 mph - N/A   Haze
4:15 PM 87.8 °F 91.4 °F 68.0 °F 52% 29.84 in 7.0 mi South 13.8 mph 18.4 mph N/A   Clear
4:35 PM 87.8 °F 92.6 °F 69.8 °F 55% 29.83 in 4.0 mi SSW 11.5 mph - N/A   Haze
4:55 PM 86.0 °F 90.4 °F 69.8 °F 58% 29.82 in 7.0 mi South 11.5 mph - N/A   Scattered Clouds
5:15 PM 86.0 °F 90.4 °F 69.8 °F 58% 29.81 in 7.0 mi South 11.5 mph 17.3 mph N/A   Scattered Clouds
5:35 PM 86.0 °F 90.4 °F 69.8 °F 58% 29.81 in 7.0 mi South 10.4 mph - N/A   Scattered Clouds
5:55 PM 86.0 °F 90.4 °F 69.8 °F 58% 29.80 in 7.0 mi South 8.1 mph - N/A   Clear
6:15 PM 84.2 °F 88.4 °F 69.8 °F 62% 29.80 in 7.0 mi South 6.9 mph - N/A   Clear
6:35 PM 84.2 °F 89.6 °F 71.6 °F 66% 29.81 in 5.0 mi South 8.1 mph - N/A   Haze
6:55 PM 82.4 °F 87.2 °F 71.6 °F 70% 29.81 in 7.0 mi South 5.8 mph - N/A   Clear
7:15 PM 80.6 °F 84.6 °F 71.6 °F 74% 29.81 in 10.0 mi South 6.9 mph - N/A   Scattered Clouds
7:35 PM 80.6 °F 83.9 °F 69.8 °F 70% 29.81 in 7.0 mi Calm Calm - N/A   Scattered Clouds
7:55 PM 80.6 °F 83.9 °F 69.8 °F 70% 29.80 in 10.0 mi South 6.9 mph - N/A   Scattered Clouds
8:15 PM 80.6 °F 83.9 °F 69.8 °F 70% 29.80 in 10.0 mi South 8.1 mph - N/A   Clear
8:35 PM 78.8 °F - 69.8 °F 74% 29.81 in 7.0 mi South 5.8 mph - N/A   Scattered Clouds
8:55 PM 78.8 °F - 69.8 °F 74% 29.80 in 10.0 mi South 5.8 mph - N/A   Mostly Cloudy
9:15 PM 78.8 °F - 69.8 °F 74% 29.81 in 10.0 mi South 5.8 mph - N/A   Mostly Cloudy
9:35 PM 78.8 °F - 71.6 °F 78% 29.80 in 10.0 mi South 6.9 mph - N/A   Scattered Clouds
9:55 PM 77.0 °F - 71.6 °F 83% 29.81 in 10.0 mi South 6.9 mph - N/A   Scattered Clouds
10:15 PM 77.0 °F - 71.6 °F 83% 29.81 in 7.0 mi SSW 6.9 mph - N/A   Scattered Clouds
10:35 PM 77.0 °F - 71.6 °F 83% 29.81 in 7.0 mi SSW 9.2 mph 16.1 mph N/A   Scattered Clouds
10:55 PM 77.0 °F - 69.8 °F 78% 29.79 in 7.0 mi SSW 10.4 mph - N/A   Clear
11:15 PM 77.0 °F - 71.6 °F 83% 29.79 in 7.0 mi SSW 6.9 mph - N/A   Clear
11:35 PM 75.2 °F - 71.6 °F 89% 29.78 in 7.0 mi Calm Calm - N/A   Clear
11:55 PM 75.2 °F - 71.6 °F 89% 29.78 in 7.0 mi Calm Calm - N/A   Scattered Clouds